Location: Marcé
(47.5801°N, 0.3280°W)
Time: 15:10:35
(UTC+01:00)

Transit 2A - Pass Details

Date: 03 December 2021
Orbit: 591 x 967 km, 66.7° (Epoch: 21 January)

Event Time Altitude Azimuth Distance (km) Brightness Sun altitude
Rises 08:53:07 0° 326° (NW) 3,649 8.9 2.2°
Reaches altitude 10° 08:55:49 10° 333° (NNW) 2,712 8.3 2.6°
Maximum altitude 09:01:59 46° 46° (NE) 1,266 7.3 3.4°
Drops below altitude 10° 09:07:58 10° 119° (ESE) 2,639 11.0 4.2°
Sets 09:10:32 0° 125° (SE) 3,541 12.2 4.5°
